Location: Catacaguana
(10.4120°N, 66.7591°W)
Time: 04:59:22
(UTC+00:00)

Cosmos 1503 Rocket - Pass Details

Date: 27 May 2022
Orbit: 751 x 791 km, 74.0° (Epoch: 26 June)

Event Time Altitude Azimuth Distance (km) Brightness Sun altitude
Exits shadow 00:20:16 19° 186° (S) 1,742 5.6 -22.3°
Maximum altitude 00:24:00 77° 103° (ESE) 784 3.8 -23.1°
Drops below altitude 10° 00:29:14 10° 17° (NNE) 2,306 6.6 -24.2°
Sets 00:31:37 0° 15° (NNE) 3,238 7.4 -24.7°
